TimeAKDT,TemperatureF,Dew PointF,Humidity,Sea Level PressureIn,VisibilityMPH,Wind Direction,Wind SpeedMPH,Gust SpeedMPH,PrecipitationIn,Events,Conditions,WindDirDegrees,DateUTC
12:56 AM,39.9,24.1,53,30.17,10.0,ENE,3.5,-,N/A,,Overcast,60,2012-10-03 08:56:00
1:56 AM,36.0,25.0,64,30.18,10.0,ENE,3.5,-,N/A,,Clear,60,2012-10-03 09:56:00
2:56 AM,32.0,25.0,75,30.19,10.0,Calm,Calm,-,N/A,,Partly Cloudy,0,2012-10-03 10:56:00
3:56 AM,30.9,24.1,76,30.19,10.0,Calm,Calm,-,N/A,,Clear,0,2012-10-03 11:56:00
4:56 AM,28.9,24.1,82,30.20,10.0,Calm,Calm,-,N/A,,Clear,0,2012-10-03 12:56:00
5:56 AM,28.0,23.0,81,30.20,10.0,East,4.6,-,N/A,,Partly Cloudy,90,2012-10-03 13:56:00
6:30 AM,28.4,23.0,80,30.19,13.0,Calm,Calm,-,N/A,,Mostly Cloudy,0,2012-10-03 14:30:00
6:55 AM,28.4,23.0,80,30.22,13.0,Calm,Calm,-,N/A,,Scattered Clouds,0,2012-10-03 14:55:00
7:55 AM,28.4,21.2,74,30.22,13.0,Calm,Calm,-,N/A,,Scattered Clouds,0,2012-10-03 15:55:00
8:55 AM,26.6,23.0,86,30.22,13.0,Calm,Calm,-,N/A,,Scattered Clouds,0,2012-10-03 16:55:00
9:55 AM,30.2,24.8,80,30.21,13.0,Calm,Calm,-,N/A,,Scattered Clouds,0,2012-10-03 17:55:00
10:55 AM,37.4,26.6,65,30.23,13.0,Calm,Calm,-,N/A,,Scattered Clouds,0,2012-10-03 18:55:00
11:55 AM,44.6,26.6,49,30.22,13.0,East,6.9,-,N/A,,Scattered Clouds,90,2012-10-03 19:55:00
12:55 PM,48.2,26.6,43,30.20,25.0,East,6.9,-,N/A,,Scattered Clouds,80,2012-10-03 20:55:00
1:55 PM,51.8,26.6,38,30.17,25.0,East,6.9,-,N/A,,Scattered Clouds,100,2012-10-03 21:55:00
2:55 PM,53.6,26.6,35,30.14,25.0,East,4.6,-,N/A,,Mostly Cloudy,90,2012-10-03 22:55:00
3:55 PM,55.4,24.8,31,30.11,25.0,ESE,4.6,-,N/A,,Mostly Cloudy,110,2012-10-03 23:55:00
4:55 PM,53.6,26.6,35,30.09,25.0,East,4.6,-,N/A,,Mostly Cloudy,90,2012-10-04 00:55:00
5:55 PM,51.8,26.6,38,30.06,25.0,East,4.6,-,N/A,,Mostly Cloudy,80,2012-10-04 01:55:00
6:55 PM,46.4,26.6,46,30.05,25.0,ENE,5.8,-,N/A,,Mostly Cloudy,60,2012-10-04 02:55:00
7:55 PM,46.4,26.6,46,30.03,13.0,ENE,6.9,-,N/A,,Mostly Cloudy,70,2012-10-04 03:55:00
8:55 PM,46.4,26.6,46,30.01,13.0,ENE,8.1,-,N/A,,Mostly Cloudy,70,2012-10-04 04:55:00
9:55 PM,46.4,26.6,46,30.00,10.0,ENE,6.9,-,N/A,,Mostly Cloudy,70,2012-10-04 05:55:00
10:56 PM,46.0,26.1,46,29.99,10.0,East,6.9,-,N/A,,Clear,80,2012-10-04 06:56:00
11:56 PM,46.0,26.1,46,29.97,10.0,ENE,6.9,-,N/A,,Clear,70,2012-10-04 07:56:00